Location: Salillas
(41.9950°N, 0.2228°W)
Time: 02:13:39
(UTC+00:00)

STARLINK-1243 - Pass Details

Date: 29 March 2020
Orbit: 549 x 550 km, 53.0° (Epoch: 31 May)

Event Time Altitude Azimuth Distance (km) Brightness Sun altitude
Rises 18:33:52 0° 218° (SW) 2,709 7.6 -2.7°
Reaches altitude 10° 18:36:07 10° 214° (SW) 1,819 6.7 -3.1°
Maximum altitude 18:40:09 53° 137° (SE) 678 3.8 -3.9°
Drops below altitude 10° 18:44:12 10° 60° (ENE) 1,830 5.8 -4.6°
Enters shadow 18:47:08 -2° 56° (NE) 2,985 6.9 -5.2°
